Notices

What's New in latest Release from April 7th, 2021:

- Updated Glossary, including Speed of Maximum Gust, and Total Hourly Precipitation

- Updated national and regional climate services offices contacts and prices information

- Addition of station inventory lists for 1981-2010, 1971-2000, and 1961-1990 Normals.

If you haven't already, please take our survey and provide feedback about our website: https://eccc.sondage-survey.ca/f/LanguageSelection.aspx?s=442ca660-fcf1-47c0-95a9-59707d6fd709

Hourly Data Report for July 31, 2018

OTTAWA INTL A
ONTARIO
Current Station Operator: NAVCAN

45°19'00.000" N
75°40'00.000" W
114.90 m
6106001
71628
YOW

Download Data

Hourly Data (July 2018)
Hourly Data Report for July 31, 2018
TIME
LST
Temp Definition
°C
Dew Point Definition
°C
Rel Hum Definition
%
Precip. Amount Definition
mm

Wind Dir Definition
10's deg

Wind Spd Definition
km/h
Visibility Definition
km
Stn Press Definition
kPa
Hmdx Definition


Wind Chill Definition


Weather Definition


00:00 19.0 15.9 82   25 8 24.1 100.49     LegendNANA
01:00 17.9 15.9 88   20 9 24.1 100.50     Mostly Cloudy
02:00 18.2 16.3 88   19 12 24.1 100.52     LegendNANA
03:00 17.3 15.7 91   18 9 24.1 100.51     LegendNANA
04:00 17.6 16.0 91   20 5 24.1 100.55     Mostly Cloudy
05:00 17.4 16.0 92   17 7 24.1 100.57     LegendNANA
06:00 18.3 17.0 92   19 5 24.1 100.60     LegendNANA
07:00 20.1 17.6 85   20 13 24.1 100.63 26   Mainly Clear
08:00 21.5 17.2 76   20 18 24.1 100.63 27   LegendNANA
09:00 23.3 17.5 69   21 9 24.1 100.61 29   LegendNANA
10:00 24.9 16.7 60   20 9 24.1 100.58 30   Clear
11:00 25.8 16.4 56   22 7 24.1 100.58 31   LegendNANA
12:00 26.4 16.9 55   36 3 24.1 100.54 32   LegendNANA
13:00 27.1 16.3 51   18 6 24.1 100.53 32   Mainly Clear
14:00 27.9 16.9 51   21 8 24.1 100.47 33   LegendNANA
15:00 27.9 17.5 53   15 14 24.1 100.45 34   LegendNANA
16:00 27.6 16.3 49   17 13 24.1 100.42 32   Mainly Clear
17:00 27.3 16.0 49   16 10 24.1 100.36 32   LegendNANA
18:00 26.1 18.0 61   15 8 24.1 100.33 32   LegendNANA
19:00 23.9 18.8 73   13 9 24.1 100.33 31   Mostly Cloudy
20:00 22.2 18.3 78   14 10 32.2 100.35 28   LegendNANA
21:00 21.6 18.4 82   13 9 24.1 100.35 28   LegendNANA
22:00 21.9 18.4 80   16 5 24.1 100.34 28   Mostly Cloudy
23:00 21.7 18.8 83   14 7 24.1 100.32 28   LegendNANA

Notes on Data Quality.

Legend

  • E = Estimated
  • M = Missing
  • NA = Not Available*
  • [empty] = Indicates an unobserved value
Date modified: